Location: Newark
(53.3333°N, 83.7500°E)
Time: 00:45:31
(UTC+00:00)

Transit 2A - Visible Passes

Search period start: 18 November 2019 00:00
Search period end: 28 November 2019 00:00
Orbit: 601 x 957 km, 66.7° (Epoch: 16 November)

Date Brightness Start Highest point End Pass type
(mag) Time Alt. Az. Time Alt. Az. Time Alt. Az.
18 Nov 7.6 10:59:14 10° NW 11:01:51 15° N 11:04:25 10° NNE visible
18 Nov 7.2 12:43:18 10° NNW 12:46:13 20° NNE 12:46:13 20° NNE visible
18 Nov 8.4 14:26:13 10° NW 14:26:42 13° NW 14:26:42 13° NW visible
19 Nov 7.2 12:09:10 10° NNW 12:12:14 18° NNE 12:13:01 17° NNE visible
19 Nov 7.8 13:52:07 10° NW 13:53:30 19° NNW 13:53:30 19° NNW visible
20 Nov 7.4 11:34:58 10° NNW 11:37:48 16° NNE 11:39:50 13° NE visible
20 Nov 7.1 13:18:03 10° NNW 13:20:19 25° N 13:20:19 25° N visible
21 Nov 7.5 11:00:42 10° NNW 11:03:20 15° N 11:05:57 10° NE visible
21 Nov 6.7 12:43:59 10° NNW 12:47:10 28° NNE 12:47:10 28° NNE visible
21 Nov 8.4 14:26:59 10° NW 14:27:40 14° NW 14:27:40 14° NW visible
22 Nov 6.7 12:09:54 10° NNW 12:13:32 25° NNE 12:14:04 24° NE visible
22 Nov 7.6 13:52:50 10° NW 13:54:34 24° NW 13:54:34 24° NW visible
23 Nov 7.0 11:35:48 10° NNW 11:39:11 21° NNE 11:41:02 16° ENE visible
23 Nov 6.5 13:18:42 10° NW 13:21:32 39° NNW 13:21:32 39° NNW visible
24 Nov 7.1 11:01:41 10° NNW 11:04:46 18° NNE 11:07:51 10° ENE visible
24 Nov 5.8 12:44:36 10° NW 12:48:34 50° NNE 12:48:34 50° NNE visible
24 Nov 8.3 14:28:03 10° WNW 14:29:04 15° WNW 14:29:04 15° WNW visible
25 Nov 6.0 12:10:32 10° NNW 12:14:39 39° NE 12:15:41 34° ENE visible
25 Nov 7.4 13:53:43 10° NW 13:56:12 29° WNW 13:56:12 29° WNW visible
26 Nov 6.4 11:36:28 10° NNW 11:40:22 31° NE 11:42:56 18° E visible
26 Nov 6.1 13:19:30 10° NW 13:23:28 56° WSW 13:23:28 56° WSW visible
27 Nov 6.6 11:02:23 10° NNW 11:06:04 26° NNE 11:09:45 10° E visible
27 Nov 5.5 12:45:19 10° NW 12:49:41 81° SW 12:50:54 47° SSE visible
27 Nov 8.5 14:29:58 10° W 14:31:27 13° W 14:31:27 13° W visible
